"Pseudo-MPEC" for C0ANTF2

Created 2019 Mar 17 18:18:13 UT using Find_Orb

Click here for an explanation of pseudo-MPECs

 
 Astrometry: 
     C0ANTF2  C2019 03 15.38320 13 17 50.56 -15 18 39.5    ~3FA3 19.0 GVNEOCPG96
     C0ANTF2  C2019 03 15.38880 13 17 56.46 -15 19 45.0    ~3FA3 19.1 GVNEOCPG96
     C0ANTF2  C2019 03 15.39439 13 18 02.35 -15 20 50.4    ~3FA3 19.1 GVNEOCPG96
     C0ANTF2  C2019 03 15.39998 13 18 08.21 -15 21 55.6    ~3FA3 19.1 GVNEOCPG96
     C0ANTF2  C2019 03 15.49750 13 19 53.41 -15 40 56.9    ~3FCI 19.4 GVNEOCPG96
     C0ANTF2  C2019 03 15.49773 13 19 53.68 -15 40 59.0    ~3FCI 19.2 GVNEOCPG96
     C0ANTF2  C2019 03 15.49797 13 19 53.95 -15 41 01.9    ~3FCI 19.5 GVNEOCPG96
     C0ANTF2  C2019 03 15.49820 13 19 54.22 -15 41 03.9    ~3FCI 19.4 GVNEOCPG96
     C0ANTF2 KC2019 03 16+nrTyO/Kb)V],iYD:\WXR[ikbv4GyNAstrometryV*B(^AWGGsPWH21
     C0ANTF2 KC2019 03 16L8s$MI5m76lfGQbOi^-7+ZAbredacted;72cLlXR^+WfGZUnrla8H21
     C0ANTF2 KC2019 03 16)LCdH`UZ#'[4click?@E+g%:\Q,wiSCDv$6Y+4C-txgQZG2nfR9KH21
     C0ANTF2 KC2019 03 17`m)kVb(5G3TjeAAEhhere-m/9`Z23v]M6P-@Bc\$R)@e]0QXQP^xL01
     C0ANTF2 KC2019 03 17D9.KP92J5u,for9(iYmLCD*tO^2Mnce876@EJ^NtM$Zf,IESOBR3L01
     C0ANTF2 KC2019 03 17EsWL0HF0pHlDvJXbV'bexplanation00*bC!Cn)Q4OJEU5m!E1KmL01
     C0ANTF2 KC2019 03 17.09434413 58 56.78 -21 43 40.5    ~3H2m 18.8 GVNEOCPJ95
     C0ANTF2 KC2019 03 17.09988513 59 06.00 -21 45 04.0    ~3H2m 18.7 GVNEOCPJ95
     C0ANTF2 KC2019 03 17.10408113 59 12.93 -21 46 08.4    ~3H2m 19.2 GVNEOCPJ95
     C0ANTF2  C2019 03 17.30531 14 05 31.90 -22 36 05.8    ~3H7m 18.6 GVNEOCPI52
     C0ANTF2  C2019 03 17.30549 14 05 32.24 -22 36 09.2    ~3H7m 19.4 GVNEOCPI52
     C0ANTF2  C2019 03 17.30567 14 05 32.55 -22 36 11.5    ~3H7m 18.3 GVNEOCPI52
     C0ANTF2  C2019 03 17.30586 14 05 32.87 -22 36 15.4    ~3H7m 19.6 GVNEOCPI52

Station data:
(G96) Mt. Lemmon Survey  (N32.442754 W110.788720)  US/Arizona.  Observers B.
   M. Africano, E. J. Christensen, G. A. Farneth, D. C. Fuls, A. R. Gibbs, A.
   D. Grauer, H. Groeller, J. A. Johnson, R. A. Kowalski, S. M. Larson, G. J.
   Leonard, R. L. Seaman, F. C. Shelly. 1.5-m reflector + 10K CCD.
(H21) Astronomical Research Observatory, Westfield  (N39.483057 W87.968270)
   US/Illinois. 0.76-m f/3.0 astrograph + CCD.
(I52) Steward Observatory, Mt. Lemmon Station  (N32.442547 W110.788920)
   US/Arizona.  Observers B. M. Africano, E. J. Christensen, G. A. Farneth,
   D. C. Fuls, A. R. Gibbs, A. D. Grauer, H. Groeller, J. A. Johnson, R. A.
   Kowalski, S. M. Larson, G. J. Leonard, R. L. Seaman, F. C. Shelly. 1.0-m
   reflector + CCD.
(J95) Great Shefford  (N51.474969 W1.447003)  UK.  Observer P. Birtwhistle.
   0.40-m f/6.0 Schmidt-Cassegrain + CCD.
(L01) Višnjan Observatory, Tičan  (N45.290900 E13.749300)  Croatia.
   Observers K. Korlević, E. Pettarin. Measurer E. Pettarin. 1.0-m f/2.9
   reflector + CCD.

Orbital elements:  C0ANTF2
   Perihelion 2019 May 1.859982 +/- 0.00905 TT = 20:38:22 (JD 2458605.359982)
Epoch 2019 Mar 17.0 TT = JDT 2458559.5   Earth MOID: 0.0051   Ma: 0.0030
M 327.93760401 +/- 0.029            (J2000 ecliptic)          AutoNEOCP
n   0.69913668 +/- 0.00054          Peri.  246.31832 +/- 0.013
a   1.25726836 +/- 0.000647         Node   343.77645 +/- 0.0026
e   0.2614442 +/- 0.00047           Incl.    0.92301 +/- 0.0014
P   1.41/514.91d           H 25.9   G  0.15   U  7.7  
q 0.92856276 +/- 0.000116    Q 1.58597397 +/- 0.00141
From 21 observations 2019 Mar. 15-17 (46.1 hr); mean residual 0".30
Residuals in arcseconds: 
190315 G96  .19+  .36-    190315 G96  .12+  .71+    190317 J95  .18+  .10+    
190315 G96  .31+  .14-    190316 H21  .04+  .09-    190317 J95  .32+  .47+    
190315 G96  .31+  .05+    190316 H21  .01-  .14-    190317 J95  .42-  .46-    
190315 G96  .25-  .41+    190316 H21  .11-  .39-    190317 I52  .21-  .21+    
190315 G96  .37-  .46-    190317 L01  .56-  .20+    190317 I52  .15+  .33-    
190315 G96  .15-  .13+    190317 L01  .15-  .33+    190317 I52  .09+  .24+    
190315 G96  .10-  .03+    190317 L01  .28+  .35-    190317 I52  .08-  .64-    

Ephemerides (geocentric):
Date (UTC) HH   RA              Dec         delta   r     elong  mag " sig PA
---- -- -- --  -------------   -----------  ------ ------ -----  --- ---- ---
2019 03 17 18  14 19 50.367   -24 27 46.25  .02234 1.0109 134.9 19.4 .810 153
2019 03 17 19  14 21 17.064   -24 38 52.19  .02226 1.0108 134.6 19.4 .835 152
2019 03 17 20  14 22 44.634   -24 49 59.69  .02218 1.0106 134.3 19.4 .861 151
2019 03 17 21  14 24 13.084   -25 01 08.65  .02210 1.0105 133.9 19.4 .888 149
2019 03 17 22  14 25 42.420   -25 12 18.93  .02203 1.0104 133.6 19.4 .916 148
2019 03 17 23  14 27 12.646   -25 23 30.43  .02195 1.0102 133.2 19.4 .945 147
2019 03 18 00  14 28 43.770   -25 34 43.02  .02188 1.0101 132.9 19.4 .975 146
2019 03 18 01  14 30 15.796   -25 45 56.57  .02180 1.0099 132.5 19.4 1.01 145
2019 03 18 02  14 31 48.730   -25 57 10.96  .02173 1.0098 132.2 19.4 1.04 144
2019 03 18 03  14 33 22.576   -26 08 26.04  .02166 1.0097 131.8 19.4 1.07 143
2019 03 18 04  14 34 57.340   -26 19 41.68  .02159 1.0095 131.5 19.4 1.10 142
2019 03 18 05  14 36 33.026   -26 30 57.73  .02152 1.0094 131.1 19.4 1.14 141
2019 03 18 06  14 38 09.637   -26 42 14.05  .02145 1.0093 130.7 19.4 1.18 140
2019 03 18 07  14 39 47.179   -26 53 30.49  .02138 1.0091 130.4 19.4 1.21 139
2019 03 18 08  14 41 25.655   -27 04 46.90  .02131 1.0090 130.0 19.4 1.25 139
2019 03 18 09  14 43 05.067   -27 16 03.10  .02125 1.0089 129.6 19.4 1.29 138
2019 03 18 10  14 44 45.420   -27 27 18.96  .02118 1.0087 129.2 19.4 1.33 137
2019 03 18 11  14 46 26.716   -27 38 34.29  .02112 1.0086 128.9 19.4 1.37 136
2019 03 18 12  14 48 08.956   -27 49 48.92  .02106 1.0084 128.5 19.4 1.41 135
2019 03 18 13  14 49 52.144   -28 01 02.69  .02100 1.0083 128.1 19.4 1.46 135
2019 03 18 14  14 51 36.281   -28 12 15.42  .02094 1.0082 127.7 19.4 1.50 134
2019 03 18 15  14 53 21.368   -28 23 26.93  .02088 1.0080 127.3 19.4 1.54 133
2019 03 18 16  14 55 07.405   -28 34 37.04  .02082 1.0079 126.9 19.4 1.59 132
2019 03 18 17  14 56 54.393   -28 45 45.55  .02076 1.0078 126.5 19.4 1.64 132
2019 03 18 18  14 58 42.332   -28 56 52.28  .02071 1.0076 126.1 19.4 1.68 131
2019 03 18 19  15 00 31.222   -29 07 57.03  .02066 1.0075 125.7 19.4 1.73 130
2019 03 18 20  15 02 21.060   -29 18 59.61  .02060 1.0074 125.3 19.4 1.78 130
2019 03 18 21  15 04 11.847   -29 29 59.82  .02055 1.0072 124.9 19.5 1.83 129
2019 03 18 22  15 06 03.579   -29 40 57.46  .02050 1.0071 124.5 19.5 1.88 128
2019 03 18 23  15 07 56.254   -29 51 52.33  .02045 1.0070 124.1 19.5 1.93 128
2019 03 19 00  15 09 49.869   -30 02 44.21  .02040 1.0068 123.7 19.5 1.99 127
2019 03 19 01  15 11 44.420   -30 13 32.90  .02036 1.0067 123.3 19.5 2.04 127
2019 03 19 02  15 13 39.902   -30 24 18.19  .02031 1.0065 122.9 19.5 2.10 126
2019 03 19 03  15 15 36.312   -30 34 59.86  .02027 1.0064 122.5 19.5 2.15 125
2019 03 19 04  15 17 33.643   -30 45 37.70  .02022 1.0063 122.1 19.5 2.21 125
2019 03 19 05  15 19 31.890   -30 56 11.50  .02018 1.0061 121.7 19.5 2.26 124
2019 03 19 06  15 21 31.045   -31 06 41.03  .02014 1.0060 121.2 19.5 2.32 124
2019 03 19 07  15 23 31.102   -31 17 06.08  .02010 1.0059 120.8 19.5 2.38 123
2019 03 19 08  15 25 32.052   -31 27 26.43  .02007 1.0057 120.4 19.5 2.44 123
2019 03 19 09  15 27 33.886   -31 37 41.86  .02003 1.0056 120.0 19.5 2.50 122
2019 03 19 10  15 29 36.595   -31 47 52.15  .02000 1.0055 119.5 19.5 2.56 122
2019 03 19 11  15 31 40.170   -31 57 57.08  .01996 1.0053 119.1 19.6 2.62 121
2019 03 19 12  15 33 44.598   -32 07 56.42  .01993 1.0052 118.7 19.6 2.68 121
2019 03 19 13  15 35 49.870   -32 17 49.97  .01990 1.0051 118.3 19.6 2.74 120
2019 03 19 14  15 37 55.972   -32 27 37.50  .01987 1.0049 117.8 19.6 2.81 120
2019 03 19 15  15 40 02.892   -32 37 18.79  .01984 1.0048 117.4 19.6 2.87 119
2019 03 19 16  15 42 10.616   -32 46 53.63  .01981 1.0047 117.0 19.6 2.93 119
2019 03 19 17  15 44 19.130   -32 56 21.80  .01979 1.0045 116.5 19.6 3.00 118